Location: Göttingen
(51.5413°N, 9.9158°E)
Time: 02:48:16
(UTC+02:00)

Envisat - Pass Details

Date: 29 January 2022
Orbit: 764 x 765 km, 98.2° (Epoch: 22 May)

Event Time Altitude Azimuth Distance (km) Brightness Sun altitude
Rises 05:03:47 0° 17° (NNE) 3,244 6.5 -27.8°
Reaches altitude 10° 05:06:09 10° 21° (NNE) 2,313 5.8 -27.5°
Maximum altitude 05:11:10 58° 101° (E) 891 3.5 -26.7°
Drops below altitude 10° 05:16:10 10° 180° (S) 2,297 5.4 -25.9°
Sets 05:18:30 0° 185° (S) 3,219 6.2 -25.5°
